• In Lithuania
  • List of Countries
  • For 7 days
  • Water Temperature
  • Satellite Maps
  • Weather Map
  • Weather Widgets
  • user-avatar
    Login

    Hourly Weather Solden

    Today, 19 December, Tuesday

    Time Temperature Precipitation Wind Pressure Humidity
    00:00 -15°C° 0 mm 1 mps 580 mmHg 86%
    01:00 -15°C° 0 mm 1 mps 580 mmHg 86%
    02:00 -15°C° 0 mm 1 mps 580 mmHg 86%
    03:00 -15°C° 0 mm 1 mps 580 mmHg 86%
    04:00 -15°C° 0 mm 1 mps 580 mmHg 86%
    05:00 -15°C° 0 mm 1 mps 580 mmHg 86%
    06:00 -15°C° 0 mm 1 mps 580 mmHg 86%
    07:00 -15°C° 0 mm 1 mps 581 mmHg 86%
    08:00 -14°C° 0 mm 1 mps 582 mmHg 84%
    09:00 -13°C° 0 mm 1 mps 583 mmHg 82%
    10:00 -11°C° 0 mm 1 mps 584 mmHg 80%
    11:00 -10°C° 0 mm 1 mps 584 mmHg 77%
    12:00 -9°C° 0 mm 1 mps 585 mmHg 74%
    13:00 -7°C° 0 mm 1 mps 585 mmHg 71%
    14:00 -9°C° 0 mm 1 mps 585 mmHg 75%
    15:00 -10°C° 0 mm 1 mps 584 mmHg 79%
    16:00 -11°C° 0 mm 1 mps 583 mmHg 83%
    17:00 -12°C° 0 mm 1 mps 583 mmHg 84%
    18:00 -15°C° 0 mm 2 mps 583 mmHg 85%
    19:00 -16°C° 0 mm 2 mps 582 mmHg 86%
    20:00 -16°C° 0 mm 2 mps 582 mmHg 85%
    21:00 -16°C° 0 mm 2 mps 582 mmHg 84%
    22:00 -16°C° 0 mm 2 mps 582 mmHg 84%
    23:00 -16°C° 0 mm 2 mps 582 mmHg 84%

    Tomorrow, 20 December, Wednesday

    Time Temperature Precipitation Wind Pressure Humidity
    00:00 -16°C° 0 mm 2 mps 582 mmHg 84%
    01:00 -16°C° 0 mm 2 mps 582 mmHg 84%
    02:00 -16°C° 0 mm 2 mps 582 mmHg 84%
    03:00 -16°C° 0 mm 2 mps 582 mmHg 84%
    04:00 -16°C° 0 mm 2 mps 582 mmHg 84%
    05:00 -16°C° 0 mm 2 mps 582 mmHg 84%
    06:00 -16°C° 0 mm 2 mps 582 mmHg 84%
    07:00 -15°C° 0 mm 2 mps 582 mmHg 84%
    08:00 -14°C° 0 mm 2 mps 583 mmHg 83%
    09:00 -12°C° 0 mm 2 mps 584 mmHg 82%
    10:00 -10°C° 0 mm 2 mps 585 mmHg 81%
    11:00 -9°C° 0 mm 2 mps 585 mmHg 80%
    12:00 -8°C° 0 mm 2 mps 585 mmHg 79%
    13:00 -7°C° 0 mm 2 mps 586 mmHg 77%
    14:00 -7°C° 0 mm 2 mps 585 mmHg 80%
    15:00 -7°C° 0 mm 1 mps 585 mmHg 83%
    16:00 -8°C° 0 mm 1 mps 584 mmHg 85%
    17:00 -10°C° 0 mm 2 mps 584 mmHg 86%
    18:00 -12°C° 0 mm 2 mps 584 mmHg 87%
    19:00 -13°C° 0 mm 2 mps 583 mmHg 88%
    20:00 -14°C° 0 mm 2 mps 583 mmHg 88%
    21:00 -14°C° 0 mm 2 mps 583 mmHg 87%
    22:00 -14°C° 0 mm 2 mps 583 mmHg 87%
    23:00 -14°C° 0 mm 2 mps 583 mmHg 86%

    Day after tomorrow, 21 December, Thursday

    Time Temperature Precipitation Wind Pressure Humidity
    00:00 -14°C° 0 mm 2 mps 583 mmHg 85%
    01:00 -14°C° 0 mm 2 mps 584 mmHg 84%
    02:00 -14°C° 0 mm 2 mps 584 mmHg 83%
    03:00 -13°C° 0 mm 2 mps 584 mmHg 82%
    04:00 -13°C° 0 mm 2 mps 584 mmHg 82%
    05:00 -12°C° 0.1 mm 2 mps 584 mmHg 82%
    06:00 -10°C° 0.1 mm 2 mps 585 mmHg 83%
    07:00 -9°C° 0.1 mm 2 mps 585 mmHg 84%
    08:00 -8°C° 0.2 mm 2 mps 586 mmHg 84%
    09:00 -7°C° 0.2 mm 2 mps 587 mmHg 84%
    10:00 -6°C° 0.2 mm 2 mps 587 mmHg 84%
    11:00 -5°C° 0.1 mm 2 mps 587 mmHg 85%
    12:00 -4°C° 0.1 mm 2 mps 588 mmHg 85%
    13:00 -3°C° 0.1 mm 2 mps 588 mmHg 86%
    14:00 -3°C° 0 mm 2 mps 587 mmHg 87%
    15:00 -4°C° 0 mm 2 mps 587 mmHg 88%
    16:00 -5°C° 0 mm 2 mps 586 mmHg 89%
    17:00 -5°C° 0.1 mm 2 mps 586 mmHg 89%
    18:00 -6°C° 0.1 mm 2 mps 586 mmHg 89%
    19:00 -6°C° 0.1 mm 2 mps 586 mmHg 90%
    20:00 -6°C° 0.3 mm 2 mps 586 mmHg 89%
    21:00 -6°C° 0.3 mm 2 mps 586 mmHg 89%
    22:00 -5°C° 0.3 mm 2 mps 586 mmHg 88%
    23:00 -5°C° 0.3 mm 2 mps 586 mmHg 89%

    22 December, Friday

    Time Temperature Precipitation Wind Pressure Humidity
    00:00 -5°C° 0.3 mm 2 mps 586 mmHg 89%
    01:00 -5°C° 0.3 mm 2 mps 586 mmHg 89%
    02:00 -5°C° 0.4 mm 2 mps 586 mmHg 89%
    03:00 -5°C° 0.4 mm 2 mps 586 mmHg 89%
    04:00 -5°C° 0.4 mm 2 mps 585 mmHg 89%
    05:00 -5°C° 0.5 mm 2 mps 585 mmHg 89%
    06:00 -5°C° 0.5 mm 2 mps 586 mmHg 90%
    07:00 -5°C° 0.5 mm 2 mps 586 mmHg 90%
    08:00 -5°C° 0.3 mm 2 mps 586 mmHg 89%
    09:00 -4°C° 0.3 mm 2 mps 586 mmHg 88%
    10:00 -5°C° 0.3 mm 3 mps 587 mmHg 88%
    11:00 -4°C° 0.1 mm 3 mps 587 mmHg 88%
    12:00 -2°C° 0.1 mm 2 mps 587 mmHg 88%
    13:00 -2°C° 0.1 mm 2 mps 587 mmHg 88%
    14:00 -3°C° 0 mm 2 mps 586 mmHg 88%
    15:00 -4°C° 0 mm 2 mps 586 mmHg 88%
    16:00 -5°C° 0 mm 2 mps 585 mmHg 88%
    17:00 -6°C° 0.1 mm 3 mps 585 mmHg 88%
    18:00 -7°C° 0.1 mm 3 mps 584 mmHg 88%
    19:00 -8°C° 0.1 mm 3 mps 584 mmHg 88%
    20:00 -8°C° 0.2 mm 3 mps 584 mmHg 88%
    21:00 -8°C° 0.2 mm 3 mps 584 mmHg 88%
    22:00 -9°C° 0.2 mm 3 mps 584 mmHg 87%
    23:00 -9°C° 0.2 mm 3 mps 584 mmHg 87%

    23 December, Saturday

    Time Temperature Precipitation Wind Pressure Humidity
    00:00 -9°C° 0.2 mm 3 mps 583 mmHg 87%
    01:00 -9°C° 0.2 mm 3 mps 583 mmHg 87%
    02:00 -9°C° 0.3 mm 3 mps 583 mmHg 88%
    03:00 -9°C° 0.3 mm 3 mps 583 mmHg 88%
    04:00 -9°C° 0.3 mm 3 mps 583 mmHg 88%
    05:00 -9°C° 0.2 mm 3 mps 583 mmHg 88%
    06:00 -10°C° 0.2 mm 3 mps 582 mmHg 88%
    07:00 -10°C° 0.2 mm 3 mps 582 mmHg 88%
    08:00 -10°C° 0.2 mm 3 mps 583 mmHg 86%
    09:00 -9°C° 0.2 mm 3 mps 583 mmHg 84%
    10:00 -9°C° 0.2 mm 3 mps 583 mmHg 83%
    11:00 -8°C° 0.1 mm 3 mps 584 mmHg 80%
    12:00 -8°C° 0.1 mm 3 mps 584 mmHg 77%
    13:00 -8°C° 0.1 mm 4 mps 584 mmHg 74%
    14:00 -9°C° 0 mm 4 mps 584 mmHg 76%
    15:00 -9°C° 0 mm 3 mps 583 mmHg 79%
    16:00 -10°C° 0 mm 3 mps 583 mmHg 81%
    17:00 -12°C° 0 mm 3 mps 583 mmHg 83%
    18:00 -13°C° 0 mm 3 mps 583 mmHg 84%
    19:00 -14°C° 0 mm 3 mps 583 mmHg 85%
    20:00 -14°C° 0 mm 3 mps 583 mmHg 84%
    21:00 -13°C° 0 mm 2 mps 583 mmHg 83%
    22:00 -13°C° 0 mm 2 mps 583 mmHg 82%
    23:00 -13°C° 0 mm 2 mps 583 mmHg 80%

    24 December, Sunday

    Time Temperature Precipitation Wind Pressure Humidity
    00:00 -13°C° 0 mm 2 mps 583 mmHg 78%
    01:00 -13°C° 0 mm 2 mps 583 mmHg 75%
    02:00 -13°C° 0 mm 2 mps 583 mmHg 75%
    03:00 -12°C° 0 mm 2 mps 583 mmHg 74%
    04:00 -12°C° 0 mm 2 mps 583 mmHg 74%
    05:00 -10°C° 0 mm 1 mps 583 mmHg 74%
    06:00 -10°C° 0 mm 1 mps 583 mmHg 75%
    07:00 -10°C° 0 mm 1 mps 583 mmHg 75%
    08:00 -9°C° 0 mm 1 mps 584 mmHg 75%
    09:00 -7°C° 0 mm 1 mps 585 mmHg 74%
    10:00 -6°C° 0 mm 1 mps 586 mmHg 73%
    11:00 -4°C° 0 mm 1 mps 586 mmHg 73%
    12:00 -2°C° 0 mm 1 mps 586 mmHg 72%
    13:00 -1°C° 0 mm 1 mps 586 mmHg 72%
    14:00 -2°C° 0 mm 1 mps 586 mmHg 74%
    15:00 -4°C° 0 mm 1 mps 585 mmHg 75%
    16:00 -6°C° 0 mm 1 mps 584 mmHg 77%
    17:00 -7°C° 0 mm 1 mps 584 mmHg 75%
    18:00 -8°C° 0 mm 1 mps 584 mmHg 73%
    19:00 -10°C° 0 mm 2 mps 583 mmHg 71%
    20:00 -10°C° 0 mm 2 mps 583 mmHg 70%
    21:00 -10°C° 0 mm 2 mps 583 mmHg 68%
    22:00 -10°C° 0 mm 2 mps 583 mmHg 67%
    23:00 -10°C° 0 mm 2 mps 583 mmHg 67%
    Show more